Terminal Aerodrome Forecast
Issued by NWS

Home | Current Version | Previous Version | Text Only | Print | Product List | Glossary On
Versions: 1 2 3 4 5 6 7 8 9 10 11 12 13 14
000
FTUS42 KTBW 042211 AAB
TAFLAL
TAF AMD
KLAL 042211Z 0422/0518 14012KT P6SM VCTS SCT040CB BKN070
     FM050000 11005KT P6SM VCTS SCT040CB BKN150
     FM050300 VRB03KT P6SM SCT050 BKN250
     FM051400 18005KT P6SM FEW030 SCT250=

USA.gov is the U.S. government's official web portal to all federal, state and local government web resources and services.